| time (UTC) | temp F | wind direction | speed MPH | gust MPH | rain 1hr in | rain 24hr in | rain mn in | humidity % | barometer mb |
| 20260506073505 | 45 | 281 | 0.0 | 2.0 | 0.00 | 0.23 | 0.00 | 95 | 1018.5 |
| 20260506073006 | 45 | 281 | 0.0 | 2.0 | 0.00 | 0.23 | 0.00 | 95 | 1018.5 |
| 20260506072006 | 45 | 301 | 0.0 | 1.0 | 0.00 | 0.23 | 0.00 | 95 | 1018.8 |
| 20260506071505 | 45 | 302 | 0.0 | 1.0 | 0.00 | 0.23 | 0.00 | 95 | 1018.9 |
| 20260506070505 | 45 | 297 | 0.0 | 0.0 | 0.00 | 0.23 | 0.00 | 95 | 1018.5 |
| 20260506062501 | 45 | 258 | 0.0 | 0.0 | 0.00 | 0.31 | 0.23 | 95 | 1018.0 |
| 20260506062006 | 45 | 258 | 0.0 | 0.0 | 0.00 | 0.31 | 0.23 | 95 | 1018.0 |
| 20260506061507 | 45 | 258 | 0.0 | 0.0 | 0.00 | 0.31 | 0.23 | 95 | 1017.9 |
| 20260506051005 | 45 | 258 | 0.0 | 0.0 | 0.00 | 0.33 | 0.23 | 95 | 1017.4 |
| 20260506050505 | 45 | 258 | 0.0 | 1.0 | 0.00 | 0.33 | 0.23 | 95 | 1017.3 |
| 20260506043505 | 46 | 186 | 0.0 | 0.0 | 0.00 | 0.35 | 0.23 | 95 | 1017.0 |
| 20260506043006 | 46 | 186 | 0.0 | 0.0 | 0.00 | 0.35 | 0.23 | 95 | 1017.1 |
| 20260506042505 | 46 | 186 | 0.0 | 0.0 | 0.00 | 0.35 | 0.23 | 95 | 1017.2 |
| 20260506042006 | 45 | 186 | 0.0 | 0.0 | 0.00 | 0.35 | 0.23 | 95 | 1017.0 |
| 20260506041506 | 46 | 186 | 0.0 | 0.0 | 0.00 | 0.35 | 0.23 | 95 | 1017.0 |
| 20260506041007 | 45 | 186 | 0.0 | 0.0 | 0.00 | 0.35 | 0.23 | 95 | 1016.9 |
| 20260506040505 | 45 | 186 | 0.0 | 0.0 | 0.00 | 0.35 | 0.23 | 95 | 1016.8 |
| 20260506040008 | 45 | 186 | 0.0 | 0.0 | 0.00 | 0.35 | 0.23 | 95 | 1016.9 |
| 20260506035506 | 45 | 186 | 0.0 | 0.0 | 0.00 | 0.35 | 0.23 | 95 | 1016.9 |
| 20260506035007 | 45 | 186 | 0.0 | 0.0 | 0.00 | 0.35 | 0.23 | 95 | 1016.8 |
| 20260506034507 | 46 | 186 | 0.0 | 0.0 | 0.00 | 0.35 | 0.23 | 95 | 1016.7 |
| 20260506034006 | 45 | 186 | 0.0 | 1.0 | 0.00 | 0.35 | 0.23 | 95 | 1016.7 |
| 20260506033505 | 45 | 186 | 0.0 | 1.0 | 0.00 | 0.35 | 0.23 | 95 | 1016.5 |
| 20260506033007 | 46 | 136 | 0.0 | 1.0 | 0.00 | 0.35 | 0.23 | 95 | 1016.5 |
| 20260506032506 | 46 | 136 | 0.0 | 0.0 | 0.00 | 0.35 | 0.23 | 95 | 1016.5 |
| 20260506032007 | 46 | 136 | 0.0 | 0.0 | 0.00 | 0.35 | 0.23 | 95 | 1016.4 |
| 20260506031004 | 46 | 136 | 0.0 | 0.0 | 0.00 | 0.35 | 0.23 | 95 | 1016.2 |
| 20260506030505 | 46 | 136 | 0.0 | 0.0 | 0.00 | 0.35 | 0.23 | 94 | 1016.0 |
| 20260506025505 | 46 | 136 | 0.0 | 0.0 | 0.00 | 0.35 | 0.23 | 94 | 1016.3 |
| 20260506024506 | 46 | 136 | 0.0 | 1.0 | 0.01 | 0.35 | 0.23 | 94 | 1016.0 |
| 20260506024006 | 46 | 136 | 0.0 | 0.0 | 0.01 | 0.35 | 0.23 | 94 | 1016.0 |
| 20260506023505 | 46 | 136 | 0.0 | 0.0 | 0.01 | 0.35 | 0.23 | 94 | 1016.0 |
| 20260506023004 | 46 | 136 | 0.0 | 1.0 | 0.01 | 0.35 | 0.23 | 95 | 1016.0 |
| 20260506022506 | 46 | 136 | 0.0 | 1.0 | 0.01 | 0.35 | 0.23 | 95 | 1016.0 |
| 20260506022008 | 46 | 136 | 0.0 | 0.0 | 0.01 | 0.35 | 0.23 | 95 | 1016.1 |
| 20260506021506 | 46 | 136 | 0.0 | 0.0 | 0.01 | 0.35 | 0.23 | 94 | 1015.9 |
| 20260506021006 | 46 | 136 | 0.0 | 1.0 | 0.01 | 0.35 | 0.23 | 94 | 1015.9 |
| 20260506020505 | 46 | 136 | 0.0 | 1.0 | 0.02 | 0.35 | 0.23 | 95 | 1016.0 |
| 20260506020007 | 46 | 136 | 0.0 | 0.0 | 0.02 | 0.35 | 0.23 | 94 | 1015.9 |
| 20260506015505 | 46 | 136 | 0.0 | 1.0 | 0.02 | 0.35 | 0.23 | 95 | 1015.7 |
| 20260506015006 | 46 | 136 | 0.0 | 1.0 | 0.01 | 0.34 | 0.22 | 94 | 1015.8 |
| 20260506014006 | 46 | 134 | 0.0 | 1.0 | 0.01 | 0.34 | 0.22 | 94 | 1015.8 |
| 20260506013006 | 46 | 139 | 0.0 | 2.0 | 0.01 | 0.34 | 0.22 | 94 | 1015.8 |
| 20260506012505 | 46 | 146 | 0.0 | 1.0 | 0.01 | 0.34 | 0.22 | 94 | 1015.7 |
| 20260506012005 | 46 | 148 | 0.0 | 1.0 | 0.01 | 0.34 | 0.22 | 95 | 1015.7 |
| 20260506011006 | 46 | 139 | 0.0 | 1.0 | 0.02 | 0.34 | 0.22 | 95 | 1015.8 |
| 20260506010505 | 46 | 139 | 1.0 | 1.0 | 0.02 | 0.34 | 0.22 | 94 | 1015.7 |
| 20260506005506 | 46 | 134 | 0.0 | 2.0 | 0.01 | 0.33 | 0.21 | 94 | 1015.7 |
| 20260506005007 | 46 | 137 | 0.0 | 2.0 | 0.01 | 0.33 | 0.21 | 94 | 1015.6 |
| 20260506004506 | 46 | 150 | 0.0 | 1.0 | 0.02 | 0.33 | 0.21 | 94 | 1015.6 |
| 20260506004006 | 46 | 135 | 0.0 | 1.0 | 0.02 | 0.33 | 0.21 | 94 | 1015.7 |
| 20260506003506 | 46 | 103 | 0.0 | 1.0 | 0.02 | 0.33 | 0.21 | 94 | 1015.6 |
| 20260506003007 | 46 | 154 | 0.0 | 1.0 | 0.02 | 0.33 | 0.21 | 94 | 1015.6 |
| 20260506002506 | 46 | 154 | 0.0 | 1.0 | 0.02 | 0.33 | 0.21 | 93 | 1015.5 |
| 20260506002008 | 46 | 150 | 0.0 | 1.0 | 0.02 | 0.33 | 0.21 | 93 | 1015.4 |
| 20260506001506 | 46 | 179 | 0.0 | 0.0 | 0.02 | 0.33 | 0.21 | 93 | 1015.5 |
| 20260506000505 | 46 | 201 | 0.0 | 2.0 | 0.01 | 0.32 | 0.20 | 93 | 1015.4 |
| 20260506000006 | 46 | 212 | 0.0 | 2.0 | 0.01 | 0.32 | 0.20 | 93 | 1015.4 |
| 20260505235505 | 46 | 222 | 0.0 | 1.0 | 0.01 | 0.32 | 0.20 | 93 | 1015.3 |
| 20260505235007 | 46 | 53 | 0.0 | 1.0 | 0.01 | 0.32 | 0.20 | 93 | 1015.2 |
| 20260505234506 | 46 | 52 | 0.0 | 1.0 | 0.00 | 0.31 | 0.19 | 94 | 1015.2 |
| 20260505234007 | 46 | 61 | 0.0 | 1.0 | 0.00 | 0.31 | 0.19 | 93 | 1015.2 |
| 20260505233504 | 46 | 60 | 0.0 | 3.0 | 0.00 | 0.31 | 0.19 | 93 | 1015.1 |
| 20260505233007 | 46 | 60 | 0.0 | 3.0 | 0.00 | 0.31 | 0.19 | 93 | 1015.1 |
| 20260505232005 | 46 | 111 | 0.0 | 3.0 | 0.00 | 0.31 | 0.19 | 93 | 1015.1 |
| 20260505231507 | 46 | 69 | 0.0 | 2.0 | 0.00 | 0.31 | 0.19 | 94 | 1015.1 |
| 20260505231005 | 46 | 225 | 0.0 | 2.0 | 0.01 | 0.31 | 0.19 | 93 | 1015.1 |
| 20260505230006 | 46 | 250 | 0.0 | 1.0 | 0.01 | 0.35 | 0.19 | 94 | 1014.9 |
| 20260505225005 | 46 | 84 | 0.0 | 1.0 | 0.01 | 0.35 | 0.19 | 94 | 1014.8 |
| 20260505224505 | 46 | 244 | 0.0 | 1.0 | 0.01 | 0.35 | 0.19 | 94 | 1015.0 |
| 20260505224005 | 46 | 254 | 0.0 | 1.0 | 0.01 | 0.35 | 0.19 | 94 | 1015.0 |
| 20260505223506 | 46 | 130 | 0.0 | 3.0 | 0.01 | 0.35 | 0.19 | 94 | 1014.9 |
| 20260505222004 | 46 | 37 | 0.0 | 2.0 | 0.01 | 0.35 | 0.19 | 94 | 1015.0 |
| 20260505221505 | 45 | 143 | 0.0 | 1.0 | 0.01 | 0.35 | 0.19 | 94 | 1015.1 |
| 20260505221007 | 45 | 140 | 0.0 | 1.0 | 0.00 | 0.34 | 0.18 | 94 | 1015.0 |
| 20260505220505 | 45 | 139 | 0.0 | 1.0 | 0.00 | 0.34 | 0.18 | 94 | 1015.1 |
| 20260505220007 | 45 | 120 | 0.0 | 2.0 | 0.00 | 0.34 | 0.18 | 95 | 1015.1 |
| 20260505215507 | 45 | 120 | 0.0 | 2.0 | 0.00 | 0.36 | 0.18 | 95 | 1015.2 |
| 20260505215006 | 45 | 70 | 0.0 | 2.0 | 0.00 | 0.36 | 0.18 | 95 | 1015.2 |
| 20260505214506 | 45 | 70 | 0.0 | 2.0 | 0.00 | 0.36 | 0.18 | 95 | 1015.1 |
| 20260505214006 | 45 | 74 | 0.0 | 2.0 | 0.00 | 0.36 | 0.18 | 94 | 1015.2 |
| 20260505213505 | 45 | 32 | 0.0 | 2.0 | 0.00 | 0.36 | 0.18 | 94 | 1015.2 |
| 20260505212505 | 45 | 83 | 0.0 | 2.0 | 0.00 | 0.36 | 0.18 | 95 | 1015.3 |
| 20260505212006 | 45 | 130 | 0.0 | 2.0 | 0.00 | 0.36 | 0.18 | 94 | 1015.3 |
| 20260505211506 | 45 | 135 | 0.0 | 2.0 | 0.00 | 0.36 | 0.18 | 94 | 1015.4 |
| 20260505211005 | 45 | 150 | 0.0 | 3.0 | 0.00 | 0.36 | 0.18 | 94 | 1015.3 |
| 20260505210007 | 45 | 58 | 0.0 | 3.0 | 0.00 | 0.37 | 0.18 | 94 | 1015.1 |
| 20260505204505 | 45 | 253 | 0.0 | 2.0 | 0.00 | 0.37 | 0.18 | 95 | 1015.2 |
| 20260505204005 | 45 | 82 | 0.0 | 2.0 | 0.00 | 0.37 | 0.18 | 94 | 1015.1 |
| 20260505203504 | 44 | 64 | 1.0 | 2.0 | 0.00 | 0.37 | 0.18 | 94 | 1015.1 |
| 20260505203007 | 45 | 54 | 0.0 | 1.0 | 0.00 | 0.37 | 0.18 | 94 | 1015.2 |
| 20260505202507 | 45 | 66 | 0.0 | 3.0 | 0.00 | 0.37 | 0.18 | 94 | 1015.1 |
| 20260505202005 | 45 | 117 | 1.0 | 3.0 | 0.00 | 0.37 | 0.18 | 94 | 1015.2 |
| 20260505201505 | 45 | 68 | 0.0 | 2.0 | 0.00 | 0.37 | 0.18 | 94 | 1015.0 |
| 20260505201006 | 45 | 134 | 1.0 | 2.0 | 0.00 | 0.37 | 0.18 | 94 | 1015.0 |
| 20260505200008 | 44 | 126 | 1.0 | 2.0 | 0.00 | 0.37 | 0.18 | 93 | 1015.0 |
| 20260505195007 | 45 | 130 | 0.0 | 3.0 | 0.00 | 0.37 | 0.18 | 94 | 1015.1 |
| 20260505194006 | 44 | 72 | 0.0 | 2.0 | 0.00 | 0.37 | 0.18 | 94 | 1015.2 |
| 20260505193506 | 45 | 1 | 1.0 | 5.0 | 0.00 | 0.37 | 0.18 | 94 | 1015.1 |
| 20260505193007 | 44 | 113 | 1.0 | 5.0 | 0.00 | 0.37 | 0.18 | 93 | 1015.0 |
| 20260505192006 | 45 | 72 | 1.0 | 4.0 | 0.00 | 0.37 | 0.18 | 93 | 1014.8 |
| 20260505191006 | 45 | 70 | 1.0 | 5.0 | 0.00 | 0.37 | 0.18 | 92 | 1014.8 |
| 20260505190507 | 45 | 116 | 1.0 | 5.0 | 0.00 | 0.37 | 0.18 | 91 | 1014.8 |
| 20260505190007 | 45 | 155 | 1.0 | 3.0 | 0.00 | 0.37 | 0.18 | 90 | 1014.5 |
| 20260505185507 | 46 | 131 | 0.0 | 2.0 | 0.00 | 0.37 | 0.18 | 89 | 1014.7 |
| 20260505185007 | 46 | 49 | 0.0 | 2.0 | 0.00 | 0.37 | 0.18 | 89 | 1014.6 |
| 20260505184506 | 46 | 321 | 0.0 | 1.0 | 0.00 | 0.37 | 0.18 | 89 | 1014.6 |
| 20260505184007 | 46 | 323 | 0.0 | 5.0 | 0.00 | 0.37 | 0.18 | 89 | 1014.7 |
| 20260505183504 | 46 | 190 | 1.0 | 5.0 | 0.00 | 0.37 | 0.18 | 88 | 1014.7 |
| 20260505183007 | 46 | 4 | 1.0 | 2.0 | 0.00 | 0.37 | 0.18 | 87 | 1014.7 |
| 20260505182505 | 46 | 80 | 1.0 | 2.0 | 0.00 | 0.37 | 0.18 | 88 | 1014.7 |
| 20260505182006 | 46 | 222 | 1.0 | 3.0 | 0.00 | 0.37 | 0.18 | 87 | 1014.7 |
| 20260505181506 | 47 | 163 | 1.0 | 3.0 | 0.00 | 0.37 | 0.18 | 87 | 1014.6 |
| 20260505181006 | 47 | 132 | 0.0 | 3.0 | 0.00 | 0.37 | 0.18 | 86 | 1014.5 |
| 20260505180506 | 48 | 115 | 0.0 | 2.0 | 0.00 | 0.37 | 0.18 | 84 | 1014.4 |
| 20260505180007 | 48 | 97 | 0.0 | 1.0 | 0.00 | 0.37 | 0.18 | 86 | 1014.3 |
| 20260505175006 | 48 | 333 | 0.0 | 2.0 | 0.00 | 0.42 | 0.18 | 85 | 1014.3 |
| 20260505174506 | 48 | 74 | 0.0 | 3.0 | 0.00 | 0.42 | 0.18 | 84 | 1014.2 |
| 20260505173506 | 47 | 105 | 0.0 | 1.0 | 0.00 | 0.42 | 0.18 | 85 | 1014.0 |
| 20260505173007 | 48 | 299 | 0.0 | 1.0 | 0.00 | 0.42 | 0.18 | 83 | 1014.0 |
| 20260505172506 | 48 | 146 | 0.0 | 2.0 | 0.00 | 0.42 | 0.18 | 85 | 1014.1 |
| 20260505172007 | 48 | 46 | 0.0 | 2.0 | 0.00 | 0.42 | 0.18 | 88 | 1014.0 |
| 20260505171507 | 47 | 138 | 0.0 | 2.0 | 0.00 | 0.42 | 0.18 | 87 | 1014.0 |
| 20260505171009 | 47 | 139 | 0.0 | 2.0 | 0.00 | 0.42 | 0.18 | 85 | 1014.1 |
| 20260505170504 | 47 | 152 | 0.0 | 1.0 | 0.00 | 0.42 | 0.18 | 85 | 1013.9 |
| 20260505170007 | 47 | 194 | 0.0 | 2.0 | 0.00 | 0.42 | 0.18 | 87 | 1013.7 |
| 20260505165008 | 47 | 276 | 0.0 | 2.0 | 0.00 | 0.45 | 0.18 | 86 | 1014.0 |
| 20260505164505 | 46 | 135 | 0.0 | 2.0 | 0.00 | 0.45 | 0.18 | 89 | 1013.9 |
| 20260505164006 | 46 | 195 | 0.0 | 2.0 | 0.00 | 0.45 | 0.18 | 90 | 1013.8 |
| 20260505163505 | 46 | 142 | 0.0 | 2.0 | 0.00 | 0.45 | 0.18 | 90 | 1013.7 |
| 20260505163005 | 45 | 142 | 0.0 | 2.0 | 0.00 | 0.45 | 0.18 | 91 | 1013.7 |
| 20260505162505 | 45 | 143 | 0.0 | 2.0 | 0.00 | 0.45 | 0.18 | 92 | 1013.8 |
| 20260505161505 | 44 | 114 | 0.0 | 1.0 | 0.00 | 0.45 | 0.18 | 94 | 1013.7 |
| 20260505153006 | 42 | 109 | 0.0 | 2.0 | 0.00 | 0.47 | 0.18 | 95 | 1013.4 |
| 20260505152505 | 42 | 109 | 0.0 | 2.0 | 0.00 | 0.47 | 0.18 | 95 | 1013.4 |
| 20260505152006 | 41 | 283 | 1.0 | 2.0 | 0.00 | 0.47 | 0.18 | 95 | 1013.4 |
| 20260505151505 | 41 | 283 | 1.0 | 2.0 | 0.00 | 0.47 | 0.18 | 95 | 1013.4 |
| 20260505151005 | 41 | 276 | 1.0 | 2.0 | 0.00 | 0.47 | 0.18 | 95 | 1013.5 |
| 20260505150505 | 41 | 274 | 0.0 | 1.0 | 0.01 | 0.47 | 0.18 | 95 | 1013.6 |
| 20260505125007 | 41 | 54 | 0.0 | 0.0 | 0.04 | 0.44 | 0.13 | 95 | 1013.1 |
| 20260505124505 | 41 | 54 | 0.0 | 0.0 | 0.04 | 0.44 | 0.13 | 95 | 1013.1 |
| 20260505124006 | 41 | 54 | 0.0 | 1.0 | 0.05 | 0.44 | 0.13 | 95 | 1013.0 |
| 20260505123505 | 41 | 54 | 0.0 | 1.0 | 0.04 | 0.43 | 0.12 | 95 | 1013.0 |
| 20260505123004 | 41 | 54 | 0.0 | 0.0 | 0.04 | 0.42 | 0.11 | 95 | 1012.9 |
| 20260505122505 | 41 | 54 | 0.0 | 0.0 | 0.04 | 0.42 | 0.11 | 95 | 1012.8 |
| 20260505122006 | 41 | 54 | 0.0 | 0.0 | 0.03 | 0.41 | 0.10 | 95 | 1013.0 |
| 20260505121500 | 41 | 54 | 0.0 | 0.0 | 0.03 | 0.41 | 0.10 | 95 | 1012.7 |
| 20260505120505 | 41 | 54 | 0.0 | 0.0 | 0.03 | 0.41 | 0.10 | 95 | 1012.8 |
| 20260505120006 | 41 | 54 | 0.0 | 0.0 | 0.03 | 0.41 | 0.10 | 95 | 1012.8 |
| 20260505115003 | 41 | 54 | 0.0 | 1.0 | 0.02 | 0.40 | 0.09 | 95 | 1012.9 |
| 20260505114005 | 41 | 54 | 0.0 | 0.0 | 0.01 | 0.39 | 0.08 | 95 | 1012.8 |
| 20260505113505 | 41 | 54 | 0.0 | 0.0 | 0.01 | 0.39 | 0.08 | 95 | 1012.8 |
| 20260505113000 | 41 | 54 | 0.0 | 0.0 | 0.00 | 0.38 | 0.07 | 95 | 1012.8 |
| 20260505112505 | 41 | 54 | 0.0 | 0.0 | 0.00 | 0.38 | 0.07 | 95 | 1012.8 |
| 20260505112005 | 41 | 54 | 0.0 | 1.0 | 0.00 | 0.38 | 0.07 | 95 | 1012.7 |
| 20260505111504 | 41 | 54 | 0.0 | 1.0 | 0.00 | 0.38 | 0.07 | 95 | 1012.7 |
| 20260505111001 | 41 | 54 | 0.0 | 1.0 | 0.00 | 0.38 | 0.07 | 95 | 1012.8 |
| 20260505110459 | 41 | 54 | 0.0 | 1.0 | 0.00 | 0.38 | 0.07 | 95 | 1013.0 |
| 20260505102006 | 41 | 54 | 0.0 | 0.0 | 0.00 | 0.38 | 0.07 | 95 | 1013.1 |
| 20260505101504 | 41 | 54 | 0.0 | 0.0 | 0.00 | 0.38 | 0.07 | 95 | 1013.1 |
| 20260505100505 | 41 | 54 | 0.0 | 0.0 | 0.00 | 0.38 | 0.07 | 95 | 1013.1 |
| 20260505095959 | 41 | 54 | 0.0 | 0.0 | 0.00 | 0.38 | 0.07 | 95 | 1013.3 |
| 20260505095458 | 41 | 54 | 0.0 | 0.0 | 0.00 | 0.38 | 0.07 | 95 | 1013.3 |
| 20260505094459 | 41 | 54 | 0.0 | 1.0 | 0.00 | 0.38 | 0.07 | 95 | 1013.3 |
| 20260505093959 | 41 | 54 | 0.0 | 0.0 | 0.00 | 0.38 | 0.07 | 95 | 1013.3 |
| 20260505093006 | 41 | 54 | 0.0 | 0.0 | 0.01 | 0.38 | 0.07 | 95 | 1013.4 |
| 20260505092458 | 41 | 54 | 0.0 | 0.0 | 0.01 | 0.38 | 0.07 | 95 | 1013.5 |
| 20260505092004 | 41 | 54 | 0.0 | 0.0 | 0.02 | 0.38 | 0.07 | 95 | 1013.6 |
| 20260505091503 | 41 | 54 | 0.0 | 0.0 | 0.02 | 0.38 | 0.07 | 95 | 1013.6 |
| 20260505091005 | 41 | 54 | 0.0 | 0.0 | 0.03 | 0.38 | 0.07 | 95 | 1013.6 |
| 20260505084959 | 41 | 54 | 0.0 | 1.0 | 0.03 | 0.38 | 0.07 | 95 | 1013.5 |
| 20260505084459 | 41 | 54 | 0.0 | 1.0 | 0.04 | 0.38 | 0.07 | 95 | 1013.6 |
| 20260505084000 | 41 | 54 | 0.0 | 1.0 | 0.04 | 0.38 | 0.07 | 95 | 1013.7 |
| 20260505083458 | 42 | 54 | 0.0 | 1.0 | 0.03 | 0.37 | 0.06 | 95 | 1013.8 |
| 20260505082459 | 42 | 54 | 0.0 | 1.0 | 0.04 | 0.37 | 0.06 | 95 | 1013.9 |
| 20260505082005 | 42 | 54 | 0.0 | 0.0 | 0.03 | 0.36 | 0.05 | 95 | 1013.9 |
| 20260505081504 | 42 | 54 | 0.0 | 0.0 | 0.04 | 0.36 | 0.05 | 95 | 1013.8 |
| 20260505080959 | 42 | 54 | 0.0 | 0.0 | 0.03 | 0.35 | 0.04 | 95 | 1013.9 |
| 20260505080504 | 42 | 54 | 0.0 | 1.0 | 0.03 | 0.35 | 0.04 | 95 | 1013.8 |